IGETXO42 Weather Reports


Display with metric or nautical units.
time (UTC)temp
F
wind
direction
speed
MPH
gust
MPH
rain 1hr
in
rain 24hr
in
rain mn
in
humidity
%
barometer
mb
20260507044551 47 67 1.0 3.0 0.00 0.01 0.00 92 1013.9
20260507043051 48 79 0.0 3.0 0.00 0.01 0.00 92 1013.9
20260507041553 48 0 0.0 3.0 0.00 0.01 0.00 92 1013.8
20260507040054 47 124 0.0 3.0 0.00 0.01 0.00 92 1013.9
20260507034553 48 0 0.0 2.0 0.00 0.01 0.00 92 1013.9
20260507033054 47 47 0.0 3.0 0.00 0.01 0.00 92 1013.9
20260507031550 47 0 0.0 2.0 0.00 0.01 0.00 92 1014.0
20260507030055 47 84 0.0 2.0 0.00 0.01 0.00 92 1014.0
20260507024602 48 0 0.0 1.0 0.00 0.01 0.00 91 1014.0
20260507023054 48 0 0.0 2.0 0.00 0.01 0.00 91 1014.1
20260507021559 48 0 0.0 2.0 0.00 0.01 0.00 91 1014.1
20260507020108 48 0 0.0 2.0 0.00 0.01 0.00 91 1014.2
20260507014605 49 0 0.0 1.0 0.00 0.02 0.00 91 1014.3
20260507013055 49 0 0.0 1.0 0.00 0.02 0.00 91 1014.3
20260507011555 49 0 0.0 1.0 0.00 0.02 0.00 91 1014.3
20260507010053 49 0 0.0 1.0 0.00 0.02 0.00 91 1014.5
20260507004552 49 0 0.0 0.0 0.00 0.02 0.00 91 1014.6
20260507003055 50 0 0.0 0.0 0.00 0.02 0.00 91 1014.5
20260507001557 50 0 0.0 0.0 0.00 0.02 0.00 90 1014.7
20260507000054 50 0 0.0 1.0 0.00 0.02 0.00 90 1014.8
20260506234600 51 0 0.0 1.0 0.00 0.03 0.00 90 1014.9
20260506233052 51 0 0.0 1.0 0.00 0.03 0.00 90 1014.9
20260506231558 51 77 0.0 1.0 0.00 0.03 0.00 90 1014.9
20260506230059 51 0 0.0 1.0 0.00 0.03 0.00 90 1014.9
20260506224551 52 0 0.0 1.0 0.00 0.03 0.00 90 1014.9
20260506223058 52 0 0.0 2.0 0.00 0.03 0.00 90 1015.1
20260506221553 52 0 0.0 0.0 0.00 0.03 0.00 89 1014.9
20260506220052 52 0 0.0 1.0 0.00 0.03 0.00 88 1014.8
20260506214555 52 87 0.0 1.0 0.00 0.03 0.03 88 1014.9
20260506213127 52 0 0.0 0.0 0.00 0.03 0.03 87 1015.0
20260506211604 53 0 0.0 0.0 0.00 0.03 0.03 87 1015.0
20260506210055 53 0 0.0 1.0 0.00 0.03 0.03 86 1015.0
20260506204557 53 0 0.0 1.0 0.00 0.03 0.03 85 1015.0
20260506203053 54 0 0.0 1.0 0.00 0.03 0.03 85 1014.9
20260506201604 54 0 0.0 0.0 0.00 0.03 0.03 84 1014.7
20260506200100 54 0 0.0 0.0 0.00 0.03 0.03 83 1014.7
20260506194604 55 0 0.0 1.0 0.00 0.05 0.03 82 1014.6
20260506193053 55 0 0.0 2.0 0.00 0.05 0.03 81 1014.4
20260506191553 55 0 0.0 1.0 0.00 0.05 0.03 81 1014.3
20260506190049 56 0 0.0 1.0 0.00 0.05 0.03 79 1014.4
20260506184604 57 0 0.0 1.0 0.00 0.11 0.03 78 1014.3
20260506183100 57 0 0.0 1.0 0.00 0.11 0.03 78 1014.3
20260506181551 58 0 0.0 1.0 0.00 0.11 0.03 78 1014.3
20260506180055 59 0 0.0 0.0 0.00 0.11 0.03 76 1014.3
20260506174551 61 174 0.0 1.0 0.00 0.11 0.03 74 1014.3
20260506173053 63 176 0.0 3.0 0.00 0.11 0.03 71 1014.4
20260506171553 64 176 1.0 3.0 0.00 0.11 0.03 70 1014.4
20260506170107 64 0 0.0 2.0 0.00 0.11 0.03 70 1014.4
20260506164556 62 300 1.0 4.0 0.00 0.11 0.03 72 1014.4
20260506163110 63 194 1.0 4.0 0.00 0.11 0.03 71 1014.6
20260506161601 61 261 1.0 4.0 0.00 0.11 0.03 75 1014.6
20260506160109 62 203 1.0 4.0 0.00 0.11 0.03 74 1014.6
20260506154555 61 176 1.0 4.0 0.00 0.11 0.03 79 1014.7
20260506153050 60 110 1.0 4.0 0.00 0.11 0.03 80 1014.6
20260506151551 59 176 1.0 3.0 0.00 0.11 0.03 81 1014.9
20260506150053 59 176 0.0 1.0 0.00 0.11 0.03 83 1015.1
20260506144606 58 0 1.0 4.0 0.00 0.11 0.03 82 1015.1
20260506143103 59 163 0.0 3.0 0.00 0.11 0.03 83 1015.4
20260506141550 60 146 0.0 3.0 0.00 0.11 0.02 82 1015.5
20260506140054 60 77 0.0 3.0 0.00 0.11 0.02 79 1015.5
20260506134556 61 209 1.0 4.0 0.00 0.11 0.02 76 1015.3
20260506133052 61 195 2.0 8.0 0.00 0.11 0.02 77 1015.3
20260506131556 60 148 2.0 4.0 0.00 0.11 0.02 77 1015.5
20260506130059 60 196 2.0 7.0 0.00 0.11 0.02 78 1015.3
20260506124552 60 308 2.0 5.0 0.00 0.11 0.02 78 1015.2
20260506123055 60 193 3.0 8.0 0.00 0.11 0.02 78 1015.0
20260506121557 60 324 3.0 7.0 0.00 0.11 0.02 75 1014.9
20260506120053 61 202 2.0 5.0 0.00 0.11 0.02 75 1015.0
20260506114556 61 358 2.0 9.0 0.00 0.11 0.02 74 1015.0
20260506113054 61 46 2.0 4.0 0.00 0.11 0.02 78 1015.0
20260506111554 60 172 2.0 6.0 0.00 0.11 0.02 79 1015.0
20260506110050 59 25 3.0 7.0 0.00 0.11 0.02 81 1015.0
20260506104553 60 295 2.0 5.0 0.00 0.11 0.02 81 1015.0
20260506103054 60 260 2.0 6.0 0.00 0.10 0.01 76 1015.0
20260506101554 59 333 2.0 10.0 0.00 0.10 0.01 76 1015.0
20260506100055 60 292 2.0 5.0 0.00 0.10 0.01 75 1014.9
20260506094601 59 283 2.0 6.0 0.00 0.10 0.01 74 1014.8
20260506093052 58 327 2.0 5.0 0.00 0.10 0.01 75 1014.7
20260506091550 58 193 2.0 7.0 0.00 0.10 0.01 77 1014.6
20260506090056 58 8 2.0 6.0 0.00 0.10 0.01 77 1014.6
20260506084612 58 321 2.0 5.0 0.00 0.10 0.01 77 1014.5
20260506083056 58 77 3.0 8.0 0.00 0.10 0.01 76 1014.5
20260506081556 58 302 3.0 6.0 0.00 0.10 0.01 73 1014.2
20260506073057 58 300 4.0 9.0 0.00 0.10 0.01 73 1014.2
20260506071555 58 334 3.0 9.0 0.00 0.10 0.01 73 1014.1
20260506061602 56 176 2.0 7.0 0.00 0.10 0.01 76 1014.0
20260506050106 55 250 2.0 7.0 0.00 0.10 0.01 78 1013.5